Tegucigalpa, Honduras

2:50 AM CST on January 21, 2018 (GMT -0600)
Toncontin International

Weather History for MHTG - January, 2014

Change the Weather History Date:

Friday, January 17, 2014

  Actual Average Record
Temperature  
Mean Temperature 64 °F -  
Max Temperature 80 °F 78 °F 84 °F (1998)
Min Temperature 48 °F 57 °F 48 °F (2014)
Degree Days  
Heating Degree Days 1    
Growing Degree Days 14 (Base 50)    
Moisture  
Dew Point 52 °F    
Average Humidity 63    
Maximum Humidity 82    
Minimum Humidity 40    
Precipitation  
Precipitation 0.00 in 0.01 in - ()
Sea Level Pressure  
Sea Level Pressure 30.11 in    
Wind  
Wind Speed 7 mph ()    
Max Wind Speed 15 mph    
Max Gust Speed -    
Visibility 6.4 miles    
Events      
Averages and records for this station are not official NWS values.
T = Trace of Precipitation, MM = Missing Value Source: Averaged Metar Reports

Daily Weather History Graph

Daily Weather History Graph

Search for Another Location

Airport or City:

Trip Planner

Search our weather history database for the weather conditions in past years. The results will help you decide how hot, cold, wet, or windy it might be!

Date:

Astronomy

Jan. 17, 2014 Rise Set
Actual Time 6:16 AM CST 5:41 PM CST
Civil Twilight 5:54 AM CST 6:03 PM CST
Nautical Twilight 5:28 AM CST 6:30 PM CST
Astronomical Twilight 5:01 AM CST 6:56 PM CST
Moon 7:03 PM CST (1/17) 7:05 AM CST (1/17)
Length of Visible Light 12h 09m
Length of Day
11h 24m
Full, 98% of the Moon is Illuminated
Jan 17
Full
Jan 23
Last Quarter
Jan 30
New
Feb 6
First Quarter
Feb 14
Full

Hourly Weather History & Observations

Time (CST) Temp. Heat Index Dew Point Humidity Pressure Visibility Wind Dir Wind Speed Gust Speed Precip Events Conditions
12:00 AM 57 °F - 46 °F 57% 30.07 in 6 mi North 9.2 mph - -   Haze
12:00 AM 57.2 °F - 46.4 °F 67% 30.15 in 6.2 mi North 9.2 mph - N/A   Mostly Cloudy
1:00 AM 57.2 °F - 46.4 °F 67% 30.15 in 6.2 mi North 10.4 mph - N/A   Mostly Cloudy
2:00 AM 55.4 °F - 42.8 °F 63% 30.12 in 6.2 mi North 4.6 mph - N/A   Mostly Cloudy
3:00 AM - - - % 30.07 in 6 mi NNE 3.5 mph - -  
3:00 AM 53.6 °F - 42.8 °F 67% 30.12 in 6.2 mi NNE 3.5 mph - N/A   Partly Cloudy
4:00 AM 50.0 °F - 42.8 °F 76% 30.12 in 6.2 mi Calm Calm - N/A   Partly Cloudy
5:00 AM 48.2 °F - 42.8 °F 82% 30.12 in 6.2 mi Calm Calm - N/A   Partly Cloudy
6:00 AM 50 °F - 44 °F 74% 30.13 in 6 mi Calm Calm - -  
6:00 AM 50.0 °F - 44.6 °F 82% 30.15 in 6.2 mi Calm Calm - N/A   Mostly Cloudy
7:00 AM 51.8 °F - 42.8 °F 71% 30.15 in 6.2 mi North 4.6 mph - N/A   Scattered Clouds
8:00 AM 57.2 °F - 42.8 °F 59% 30.18 in 6.2 mi North 6.9 mph - N/A   Scattered Clouds
9:00 AM 64 °F - 46 °F 40% 30.08 in 9 mi North 11.5 mph - -   Haze
9:00 AM 64.4 °F - 46.4 °F 52% 30.18 in 6.2 mi North 11.5 mph - N/A   Scattered Clouds
10:00 AM 68.0 °F - 51.8 °F 56% 30.18 in 6.2 mi North 11.5 mph - N/A   Mostly Cloudy
11:00 AM 75.2 °F - 55.4 °F 50% 30.15 in 6.2 mi NE 11.5 mph - N/A   Scattered Clouds
12:00 PM 76 °F - 56 °F 40% 29.97 in 9 mi North 11.5 mph - -   Haze
12:00 PM 77.0 °F - 57.2 °F 50% 30.12 in 6.2 mi North 11.5 mph - N/A   Scattered Clouds
1:00 PM 80.6 °F 81.5 °F 60.8 °F 51% 30.09 in 6.2 mi North 9.2 mph - N/A   Mostly Cloudy
2:00 PM 78.8 °F - 59.0 °F 51% 30.06 in 6.2 mi North 11.5 mph - N/A   Mostly Cloudy
3:00 PM 76 °F - 58 °F 43% 29.91 in 9 mi North 11.5 mph - -   Haze
3:00 PM 75.2 °F - 57.2 °F 53% 30.04 in 6.2 mi North 11.5 mph - N/A   Mostly Cloudy
4:00 PM 73.4 °F - 57.2 °F 57% 30.06 in 6.2 mi North 13.8 mph - N/A   Mostly Cloudy
5:00 PM 71.6 °F - 59.0 °F 64% 30.06 in 6.2 mi North 15.0 mph - N/A   Mostly Cloudy
6:00 PM 69 °F - 58 °F 58% 29.99 in 6 mi North 11.5 mph - -   Haze
6:00 PM 69.8 °F - 57.2 °F 64% 30.09 in 6.2 mi North 11.5 mph - N/A   Mostly Cloudy
7:00 PM 66.2 °F - 59.0 °F 78% 30.12 in 6.2 mi NNW 10.4 mph - N/A   Scattered Clouds
8:00 PM 66.2 °F - 59.0 °F 78% 30.15 in 6.2 mi North 9.2 mph - N/A   Mostly Cloudy
9:00 PM 65 °F - 56 °F 66% 30.05 in 6 mi North 11.5 mph - -   Haze
9:00 PM 64.4 °F - 57.2 °F 77% 30.18 in 6.2 mi North 11.5 mph - N/A   Mostly Cloudy
10:00 PM 64.4 °F - 57.2 °F 77% 30.18 in 6.2 mi North 11.5 mph - N/A   Mostly Cloudy
11:00 PM 62.6 °F - 57.2 °F 82% 30.18 in 6.2 mi North 9.2 mph - N/A   Mostly Cloudy